SCP
0 0 0 0 0 0 0 0 0 0 0 0 0 0 0 0 0 0 0 0 0 0 0 0 0 0 0 0 0 0 0 0 0 0 0 0 0 0 0 0 0 0 0 0 0
0 0 0 0 0 0 0 0 0 0 0 0 0 0 0 0 0 0 0 0 0 0 0 0 0 0 0 0 0 0 0 0 0 0 0 0 0 0 0 0 0 0 0 0 0
0 0 0 0 0 0 0 0 0 0 0 0 0 0 0 0 0 0 0 0 0 0 0 0 -0 0 0 0 0 0 0 0 0 0 0 0 0 0 0 0 0 0 0 0 0
0 0 0 0 0 0 0 0 0 0 0 0 0 0 0 0 0 0 0 -0 0 0 0 0 0 0 0 0 0 0 0 0 0 0 0 0 0 0 0 0 0 0 0 0 0
0 0 0 0 0 0 0 0 0 0 0 0 0 0 0 0 0 0 0 0 0 -0 0 0 0 -0 0 0 0 0 0 0 0 0 0 0 0 0 0 0 0 0 0 0 0
0 0 0 0 0 0 0 -0 0 0 -0 0 0 0 0 0 0 0 0 0 0 0 -0 0 0 0 0 0 0 0 0 0 0 0 0 0 0 0 0 0 0 1 0 0 0
0 0 0 0 0 0 -0 -0 0 -0 -0 0 0 0 0 0 0 0 0 0 0 0 0 0 0 0 -0 0 0 0 0 0 0 0 0 0 0 0 0 0 0 0 0 0 0
0 0 0 0 0 -0 -0 0 -0 -0 -0 0 0 0 0 0 0 0 0 0 0 0 0 0 0 0 0 0 0 0 0 0 0 0 0 0 0 0 0 0 0 0 0 0 0
0 0 0 0 0 -0 -0 0 -0 0 0 0 0 0 0 0 0 0 0 0 0 -0 0 0 0 -0 0 0 0 0 0 0 0 0 0 0 0 -0 -0 0 0 0 0 0 0
0 0 0 0 0 -0 0 -0 0 0 0 0 0 0 0 0 0 0 0 0 -0 0 0 0 0 0 0 0 0 0 0 0 0 0 0 0 0 0 0 0 0 0 0 0 0
0 0 0 0 0 0 0 0 0 0 0 0 0 0 0 0 0 0 0 0 -0 0 0 -0 0 0 0 0 0 0 0 0 -0 0 0 0 0 0 -0 0 0 0 0 0 0
0 0 0 0 0 0 0 0 0 0 -0 0 0 0 0 0 0 0 0 -0 -0 0 0 0 0 0 0 0 0 0 0 0 0 -0 -0 -0 -0 0 -0 0 0 0 0 0 0
0 0 0 0 0 0 0 0 0 0 0 0 0 0 0 0 0 0 0 0 -0 0 -0 0 0 0 0 0 0 0 0 0 0 0 0 -0 0 -0 -0 -0 0 0 0 0 0
0 0 0 0 0 0 0 0 0 0 0 0 0 0 0 0 0 0 0 0 0 0 0 0 0 0 0 0 0 0 0 0 0 0 0 0 -0 -0 0 -0 -0 0 0 0 0
0 0 0 0 0 0 0 0 0 0 0 0 0 0 0 0 0 0 0 0 0 0 0 0 0 0 0 0 0 0 0 0 0 0 0 0 0 0 -0 -0 -0 -0 -0 0 0
0 0 0 0 0 0 0 0 0 0 0 0 0 0 0 0 0 0 0 0 0 0 0 0 0 0 0 0 0 0 0 0 0 0 0 0 0 0 0 -0 0 0 -0 0 0
0 0 0 0 0 0 0 0 0 0 0 0 0 0 0 0 0 0 0 0 0 -0 0 0 0 0 0 0 0 0 0 0 0 0 0 0 0 0 0 -0 0 0 0 0 0
0 0 0 0 0 0 0 0 0 0 0 0 0 0 0 0 0 0 0 0 0 0 0 -0 0 0 0 0 0 0 0 0 0 0 0 0 -0 0 0 0 0 0 0 0 0
0 0 0 0 0 0 0 0 0 0 0 0 0 0 0 0 0 -0 -0 -0 -0 -0 -0 0 -0 0 0 0 0 0 0 0 0 0 0 0 0 0 0 0 0 0 0 0 0
0 0 0 0 0 0 0 0 0 0 0 0 0 0 0 0 0 -0 -0 0 -0 0 -0 -0 0 0 0 0 0 0 0 0 0 0 0 0 0 0 0 0 0 0 0 0 0
0 0 0 0 0 0 0 0 0 0 0 0 0 0 0 0 0 0 -0 0 0 -0 0 -0 0 0 0 0 0 0 0 0 0 0 0 0 0 0 0 0 0 0 0 0 0
0 0 0 0 0 0 0 0 0 0 0 0 0 0 0 -0 0 0 0 -0 0 -0 -0 0 0 0 0 0 0 0 0 0 0 0 0 0 0 0 0 0 0 0 0 0 0
0 0 0 0 0 0 0 0 0 0 0 0 0 0 0 -0 0 0 -0 -0 -0 -0 -0 -0 0 0 0 0 0 0 0 0 0 0 0 0 0 0 0 0 0 0 0 0 0
0 0 0 0 0 0 0 0 0 0 0 0 0 0 0 0 0 0 -0 -0 -0 -0 -0 -0 -0 0 0 0 0 0 0 0 0 0 0 0 0 0 0 0 0 0 0 0 0
0 0 0 0 0 0 0 0 0 0 0 0 0 0 0 0 0 0 0 -0 -0 0 -0 -0 0 -0 0 0 0 0 0 0 0 0 0 0 0 0 0 0 0 -0 0 0 0
0 0 0 0 0 0 0 0 0 0 0 0 0 0 0 0 0 0 0 0 0 -0 -0 -0 0 -0 0 0 0 0 0 0 0 0 0 0 0 0 0 -0 -0 -0 -0 -0 0
0 0 0 0 0 0 0 0 0 0 0 0 0 0 0 0 0 0 0 0 0 0 0 0 0 0 0 0 0 0 0 0 0 0 0 0 0 0 0 0 0 0 0 -0 -0
Wind_Speed_500mb
15 17 17 17 17 20 24 27 32 38 43 46 48 49 49 47 51 53 55 47 34 44 29 30 41 30 18 27 31 26 9 18 18 16 5 14 5 22 21 4 3 9 26 41 70
15 18 18 18 17 20 26 29 35 41 45 47 48 46 42 40 50 61 34 3 18 35 33 33 44 33 21 28 23 15 24 26 14 10 8 7 11 16 17 31 14 21 22 76 83
15 17 18 19 20 22 26 33 39 43 46 48 47 45 44 40 48 16 8 4 8 10 16 34 43 26 24 28 28 14 24 14 22 28 15 11 7 12 18 9 14 41 46 92 81
15 17 17 18 21 23 28 35 38 45 47 46 42 33 30 20 10 4 17 30 38 31 22 28 41 28 10 22 39 20 23 33 30 28 10 6 9 12 14 17 47 31 40 90 87
15 15 17 19 22 25 30 33 38 46 42 38 33 25 22 13 30 23 28 27 26 35 29 27 40 29 26 7 30 32 16 20 32 41 26 17 11 4 34 27 33 10 59 84 87
15 15 18 22 25 27 31 32 40 36 32 30 23 21 19 15 28 41 41 42 49 45 45 30 32 31 19 14 16 21 29 22 33 38 28 11 9 10 30 14 49 17 55 69 82
15 18 20 23 27 31 34 31 34 19 33 19 13 18 27 28 42 50 54 49 40 39 36 37 40 14 15 11 28 48 18 14 18 26 23 12 26 16 54 41 24 16 30 57 71
16 18 20 25 28 33 34 33 28 17 27 14 17 20 18 33 50 60 56 55 45 36 30 39 41 31 39 19 9 14 12 19 19 34 10 31 25 8 15 27 42 39 23 41 58
17 19 21 24 28 35 34 33 25 12 25 7 18 25 18 54 63 68 59 40 14 21 14 26 33 27 29 15 6 11 9 14 8 33 20 10 15 18 29 28 27 27 30 44 43
15 18 19 25 28 32 35 33 20 13 17 11 19 11 21 61 65 58 34 11 4 14 21 14 14 10 7 7 13 14 8 8 16 12 15 20 12 17 44 44 38 43 39 26 47
14 16 17 24 28 29 33 30 25 3 28 10 23 17 44 63 40 53 22 17 21 18 4 7 10 9 26 17 4 12 13 14 12 20 16 29 8 14 18 47 36 47 49 23 36
16 17 16 20 21 24 29 30 21 10 16 21 26 28 49 52 31 67 35 9 15 14 10 7 8 7 18 26 7 15 13 5 7 30 12 17 20 22 23 26 45 47 55 50 25
18 17 13 16 12 21 24 33 22 2 6 20 25 19 50 36 12 45 42 21 10 18 16 9 5 8 9 13 6 6 11 5 11 20 3 12 6 10 12 23 37 51 52 56 49
16 15 13 11 2 10 12 31 6 8 9 18 24 23 40 27 7 45 40 13 9 7 8 17 18 6 14 6 10 9 12 7 16 11 7 5 5 7 12 21 29 59 49 62 57
12 10 11 8 6 7 21 17 16 5 10 23 19 24 39 22 21 40 33 15 11 9 8 5 10 12 13 4 4 2 8 9 6 9 7 3 5 8 6 19 25 36 63 58 48
8 6 7 8 8 18 20 7 13 12 5 15 15 18 21 25 20 31 26 22 7 11 8 4 5 9 1 5 7 7 15 16 9 5 4 5 7 8 7 9 7 27 53 57 43
6 4 4 5 8 16 8 8 10 12 9 17 9 15 11 13 17 22 23 20 13 13 16 13 10 13 12 11 12 9 10 5 6 4 7 3 6 14 6 12 7 11 8 28 34
8 4 3 6 14 14 1 10 15 6 9 9 8 15 11 14 10 15 14 16 19 13 10 7 10 14 16 8 3 6 5 9 11 8 6 4 7 10 6 20 11 8 8 8 7
9 7 5 7 11 9 3 11 15 13 5 6 8 12 13 8 3 10 9 17 16 21 8 5 11 10 5 5 2 5 7 4 11 6 6 3 8 16 19 10 17 17 15 18 12
11 7 7 6 7 2 10 6 5 7 1 5 5 4 7 12 10 9 12 8 15 20 20 10 4 6 13 7 7 6 4 6 6 6 4 6 4 6 13 12 11 17 24 21 19
11 5 8 3 2 5 8 10 7 8 4 5 4 4 7 5 4 6 11 3 14 14 14 12 4 9 5 11 5 9 5 7 6 6 5 3 5 4 7 10 11 14 21 21 18
9 2 6 7 8 9 5 12 9 7 7 6 9 2 4 7 7 5 6 5 33 17 7 7 5 5 2 7 8 5 4 4 7 4 1 4 6 7 6 7 14 20 21 22 23
8 7 4 9 7 2 3 6 3 7 7 7 5 8 3 6 4 3 5 10 27 16 8 10 6 3 4 7 7 3 5 4 8 4 2 6 6 5 3 9 14 21 21 18 22
14 3 4 7 9 16 11 3 1 4 4 7 8 7 8 8 7 2 8 6 17 24 19 6 7 3 7 5 5 6 7 2 5 5 6 6 9 11 6 3 12 26 21 19 25
15 4 7 4 2 12 8 8 10 4 3 6 4 7 10 4 6 6 5 9 9 25 10 8 4 5 6 8 6 7 13 3 3 5 5 4 8 14 16 20 29 27 21 25 31
19 14 11 8 20 14 1 10 14 6 11 6 6 11 11 10 9 10 1 3 4 13 9 8 2 3 8 13 11 7 11 11 11 7 12 20 22 19 23 21 32 34 35 35 33
26 24 14 19 10 9 9 12 16 18 12 8 15 8 8 6 8 9 9 7 4 3 4 5 5 6 7 11 12 11 5 6 6 7 5 8 6 14 10 19 33 38 36 36 38
Wind_Direction_500mb
337 339 342 339 341 341 338 338 341 339 332 328 324 321 320 318 312 307 302 301 295 308 261 258 250 226 264 225 211 182 200 189 174 154 168 2 47 5 355 64 304 245 178 171 172
329 336 339 336 338 337 336 340 340 333 328 328 326 326 321 316 308 302 306 89 315 293 249 241 251 239 268 220 203 200 213 196 168 119 110 338 48 7 357 350 18 358 171 158 165
326 332 338 335 336 335 336 341 336 328 330 327 322 320 318 319 313 307 169 160 267 326 262 249 250 270 247 240 207 195 217 168 171 146 77 346 28 35 355 44 9 332 147 160 165
322 332 338 336 336 334 338 340 334 327 329 319 319 322 323 314 306 282 217 250 273 272 283 257 246 234 250 229 220 211 219 182 167 143 87 1 12 357 4 303 332 306 181 169 174
322 334 336 334 335 333 339 341 332 330 326 328 329 325 317 274 269 310 284 285 295 281 270 263 234 214 247 214 263 223 184 196 192 175 153 317 338 336 292 294 338 312 185 178 181
333 337 333 329 332 334 339 343 333 332 336 335 334 321 306 273 323 328 311 294 295 288 269 242 235 207 258 246 215 216 207 180 176 197 193 282 305 1 281 280 327 309 188 186 187
329 337 334 328 332 333 337 345 336 327 341 328 335 323 294 279 330 322 300 290 287 284 258 231 224 195 227 238 231 237 210 135 161 173 201 244 277 199 256 294 309 302 237 199 196
324 331 333 329 331 332 336 344 336 305 342 315 313 321 267 342 335 322 309 303 268 278 240 230 211 226 237 275 165 188 220 176 161 146 120 178 254 170 251 289 295 301 271 217 208
322 333 330 330 333 333 337 344 338 304 333 308 335 315 287 337 332 327 316 298 276 267 234 193 182 215 208 240 152 170 225 129 126 153 133 161 241 38 350 341 311 323 318 233 219
310 321 330 330 337 336 342 345 347 57 14 7 347 326 329 331 337 339 1 27 66 139 142 171 193 185 147 179 156 165 179 132 148 121 119 191 258 22 296 311 306 309 323 263 228
312 316 329 333 339 339 347 2 24 346 27 18 316 274 320 337 352 4 3 60 72 118 102 20 206 172 169 169 224 128 116 114 114 160 142 197 127 238 261 298 296 291 293 306 240
306 317 326 331 333 343 0 43 26 321 320 3 346 300 336 339 342 8 32 51 57 65 20 93 85 129 131 186 28 142 124 152 74 158 164 175 195 209 195 224 262 273 278 278 285
305 311 322 330 327 342 14 21 357 348 276 320 338 327 344 340 356 0 9 9 53 98 109 47 226 120 101 150 66 59 113 93 113 151 266 123 311 217 252 233 242 265 263 267 267
307 313 326 341 352 0 14 354 15 154 66 330 345 3 346 353 7 4 10 16 345 13 36 83 306 62 70 61 98 49 114 159 121 124 169 164 258 235 205 228 233 254 260 253 258
302 316 331 348 360 12 348 12 128 138 50 312 315 335 2 41 321 1 4 18 26 333 80 64 33 57 70 20 60 196 95 109 95 95 85 38 90 265 185 237 249 254 260 259 253
293 303 326 337 15 356 348 74 127 42 277 332 321 342 356 3 9 6 16 22 331 357 37 41 7 58 338 343 41 124 77 48 62 77 40 237 140 275 185 222 258 248 245 254 258
260 273 315 348 332 347 358 125 39 94 332 312 337 338 339 337 3 4 13 43 21 16 7 1 9 337 23 49 7 71 59 36 32 11 218 327 110 263 227 252 321 320 215 248 255
269 245 259 311 337 354 105 61 78 228 227 293 340 318 12 346 352 22 15 15 22 15 40 38 350 7 333 31 262 56 126 146 174 175 212 109 219 253 296 266 333 15 47 75 107
252 247 238 287 332 339 180 50 183 200 212 342 342 41 334 329 357 48 30 11 16 8 24 24 332 324 262 316 28 340 55 137 107 9 64 238 292 308 20 26 47 24 10 11 17
249 223 215 269 316 15 74 171 162 199 60 79 111 116 352 311 40 45 16 312 337 8 335 4 49 3 292 317 356 85 190 54 4 107 190 293 266 268 3 20 16 18 7 353 355
241 211 189 250 184 89 128 202 201 199 157 108 147 21 293 349 94 53 352 297 349 321 341 350 103 320 2 18 3 2 26 51 111 121 140 122 274 275 335 353 3 5 16 13 8
214 56 185 174 48 45 119 169 149 149 135 123 110 78 222 312 20 67 67 322 351 340 11 2 6 73 343 326 30 30 355 23 122 231 148 128 281 338 359 25 14 15 22 29 29
204 179 177 175 127 53 308 340 141 134 181 160 125 139 327 332 77 37 304 326 11 19 6 328 5 48 351 353 8 338 25 4 98 86 235 129 248 316 4 38 40 14 5 18 19
172 95 134 135 116 131 136 212 40 203 186 162 133 117 70 360 7 260 347 340 337 7 13 12 47 78 173 220 266 305 333 319 164 123 228 210 304 271 342 345 320 326 306 323 338
185 207 166 193 224 124 110 146 132 172 204 182 30 155 144 106 353 338 305 336 26 7 27 82 85 19 303 281 257 250 281 17 256 217 205 342 312 303 306 321 324 344 330 326 341
176 154 138 108 129 108 20 210 158 165 141 249 165 181 153 149 191 210 352 101 227 351 29 359 207 90 322 343 352 277 272 278 267 229 242 244 267 261 300 355 30 30 29 23 7
196 164 163 167 129 116 195 171 189 151 200 211 172 141 166 205 196 236 241 260 257 19 10 33 92 47 269 338 341 348 229 259 258 259 254 245 278 341 348 38 34 25 23 19 15
Wind_Speed_850mb
15 17 17 17 17 20 24 27 32 38 43 46 48 49 49 47 51 53 55 47 34 44 29 30 41 30 18 27 31 26 9 18 18 16 5 14 5 22 21 4 3 9 26 41 70
15 18 18 18 17 20 26 29 35 41 45 47 48 46 42 40 50 61 34 3 18 35 33 33 44 33 21 28 23 15 24 26 14 10 8 7 11 16 17 31 14 21 22 76 83
15 17 18 19 20 22 26 33 39 43 46 48 47 45 44 40 48 16 8 4 8 10 16 34 43 26 24 28 28 14 24 14 22 28 15 11 7 12 18 9 14 41 46 92 81
15 17 17 18 21 23 28 35 38 45 47 46 42 33 30 20 10 4 17 30 38 31 22 28 41 28 10 22 39 20 23 33 30 28 10 6 9 12 14 17 47 31 40 90 87
15 15 17 19 22 25 30 33 38 46 42 38 33 25 22 13 30 23 28 27 26 35 29 27 40 29 26 7 30 32 16 20 32 41 26 17 11 4 34 27 33 10 59 84 87
15 15 18 22 25 27 31 32 40 36 32 30 23 21 19 15 28 41 41 42 49 45 45 30 32 31 19 14 16 21 29 22 33 38 28 11 9 10 30 14 49 17 55 69 82
15 18 20 23 27 31 34 31 34 19 33 19 13 18 27 28 42 50 54 49 40 39 36 37 40 14 15 11 28 48 18 14 18 26 23 12 26 16 54 41 24 16 30 57 71
16 18 20 25 28 33 34 33 28 17 27 14 17 20 18 33 50 60 56 55 45 36 30 39 41 31 39 19 9 14 12 19 19 34 10 31 25 8 15 27 42 39 23 41 58
17 19 21 24 28 35 34 33 25 12 25 7 18 25 18 54 63 68 59 40 14 21 14 26 33 27 29 15 6 11 9 14 8 33 20 10 15 18 29 28 27 27 30 44 43
15 18 19 25 28 32 35 33 20 13 17 11 19 11 21 61 65 58 34 11 4 14 21 14 14 10 7 7 13 14 8 8 16 12 15 20 12 17 44 44 38 43 39 26 47
14 16 17 24 28 29 33 30 25 3 28 10 23 17 44 63 40 53 22 17 21 18 4 7 10 9 26 17 4 12 13 14 12 20 16 29 8 14 18 47 36 47 49 23 36
16 17 16 20 21 24 29 30 21 10 16 21 26 28 49 52 31 67 35 9 15 14 10 7 8 7 18 26 7 15 13 5 7 30 12 17 20 22 23 26 45 47 55 50 25
18 17 13 16 12 21 24 33 22 2 6 20 25 19 50 36 12 45 42 21 10 18 16 9 5 8 9 13 6 6 11 5 11 20 3 12 6 10 12 23 37 51 52 56 49
16 15 13 11 2 10 12 31 6 8 9 18 24 23 40 27 7 45 40 13 9 7 8 17 18 6 14 6 10 9 12 7 16 11 7 5 5 7 12 21 29 59 49 62 57
12 10 11 8 6 7 21 17 16 5 10 23 19 24 39 22 21 40 33 15 11 9 8 5 10 12 13 4 4 2 8 9 6 9 7 3 5 8 6 19 25 36 63 58 48
8 6 7 8 8 18 20 7 13 12 5 15 15 18 21 25 20 31 26 22 7 11 8 4 5 9 1 5 7 7 15 16 9 5 4 5 7 8 7 9 7 27 53 57 43
6 4 4 5 8 16 8 8 10 12 9 17 9 15 11 13 17 22 23 20 13 13 16 13 10 13 12 11 12 9 10 5 6 4 7 3 6 14 6 12 7 11 8 28 34
8 4 3 6 14 14 1 10 15 6 9 9 8 15 11 14 10 15 14 16 19 13 10 7 10 14 16 8 3 6 5 9 11 8 6 4 7 10 6 20 11 8 8 8 7
9 7 5 7 11 9 3 11 15 13 5 6 8 12 13 8 3 10 9 17 16 21 8 5 11 10 5 5 2 5 7 4 11 6 6 3 8 16 19 10 17 17 15 18 12
11 7 7 6 7 2 10 6 5 7 1 5 5 4 7 12 10 9 12 8 15 20 20 10 4 6 13 7 7 6 4 6 6 6 4 6 4 6 13 12 11 17 24 21 19
11 5 8 3 2 5 8 10 7 8 4 5 4 4 7 5 4 6 11 3 14 14 14 12 4 9 5 11 5 9 5 7 6 6 5 3 5 4 7 10 11 14 21 21 18
9 2 6 7 8 9 5 12 9 7 7 6 9 2 4 7 7 5 6 5 33 17 7 7 5 5 2 7 8 5 4 4 7 4 1 4 6 7 6 7 14 20 21 22 23
8 7 4 9 7 2 3 6 3 7 7 7 5 8 3 6 4 3 5 10 27 16 8 10 6 3 4 7 7 3 5 4 8 4 2 6 6 5 3 9 14 21 21 18 22
14 3 4 7 9 16 11 3 1 4 4 7 8 7 8 8 7 2 8 6 17 24 19 6 7 3 7 5 5 6 7 2 5 5 6 6 9 11 6 3 12 26 21 19 25
15 4 7 4 2 12 8 8 10 4 3 6 4 7 10 4 6 6 5 9 9 25 10 8 4 5 6 8 6 7 13 3 3 5 5 4 8 14 16 20 29 27 21 25 31
19 14 11 8 20 14 1 10 14 6 11 6 6 11 11 10 9 10 1 3 4 13 9 8 2 3 8 13 11 7 11 11 11 7 12 20 22 19 23 21 32 34 35 35 33
26 24 14 19 10 9 9 12 16 18 12 8 15 8 8 6 8 9 9 7 4 3 4 5 5 6 7 11 12 11 5 6 6 7 5 8 6 14 10 19 33 38 36 36 38
Wind_Direction_850mb
337 339 342 339 341 341 338 338 341 339 332 328 324 321 320 318 312 307 302 301 295 308 261 258 250 226 264 225 211 182 200 189 174 154 168 2 47 5 355 64 304 245 178 171 172
329 336 339 336 338 337 336 340 340 333 328 328 326 326 321 316 308 302 306 89 315 293 249 241 251 239 268 220 203 200 213 196 168 119 110 338 48 7 357 350 18 358 171 158 165
326 332 338 335 336 335 336 341 336 328 330 327 322 320 318 319 313 307 169 160 267 326 262 249 250 270 247 240 207 195 217 168 171 146 77 346 28 35 355 44 9 332 147 160 165
322 332 338 336 336 334 338 340 334 327 329 319 319 322 323 314 306 282 217 250 273 272 283 257 246 234 250 229 220 211 219 182 167 143 87 1 12 357 4 303 332 306 181 169 174
322 334 336 334 335 333 339 341 332 330 326 328 329 325 317 274 269 310 284 285 295 281 270 263 234 214 247 214 263 223 184 196 192 175 153 317 338 336 292 294 338 312 185 178 181
333 337 333 329 332 334 339 343 333 332 336 335 334 321 306 273 323 328 311 294 295 288 269 242 235 207 258 246 215 216 207 180 176 197 193 282 305 1 281 280 327 309 188 186 187
329 337 334 328 332 333 337 345 336 327 341 328 335 323 294 279 330 322 300 290 287 284 258 231 224 195 227 238 231 237 210 135 161 173 201 244 277 199 256 294 309 302 237 199 196
324 331 333 329 331 332 336 344 336 305 342 315 313 321 267 342 335 322 309 303 268 278 240 230 211 226 237 275 165 188 220 176 161 146 120 178 254 170 251 289 295 301 271 217 208
322 333 330 330 333 333 337 344 338 304 333 308 335 315 287 337 332 327 316 298 276 267 234 193 182 215 208 240 152 170 225 129 126 153 133 161 241 38 350 341 311 323 318 233 219
310 321 330 330 337 336 342 345 347 57 14 7 347 326 329 331 337 339 1 27 66 139 142 171 193 185 147 179 156 165 179 132 148 121 119 191 258 22 296 311 306 309 323 263 228
312 316 329 333 339 339 347 2 24 346 27 18 316 274 320 337 352 4 3 60 72 118 102 20 206 172 169 169 224 128 116 114 114 160 142 197 127 238 261 298 296 291 293 306 240
306 317 326 331 333 343 0 43 26 321 320 3 346 300 336 339 342 8 32 51 57 65 20 93 85 129 131 186 28 142 124 152 74 158 164 175 195 209 195 224 262 273 278 278 285
305 311 322 330 327 342 14 21 357 348 276 320 338 327 344 340 356 0 9 9 53 98 109 47 226 120 101 150 66 59 113 93 113 151 266 123 311 217 252 233 242 265 263 267 267
307 313 326 341 352 0 14 354 15 154 66 330 345 3 346 353 7 4 10 16 345 13 36 83 306 62 70 61 98 49 114 159 121 124 169 164 258 235 205 228 233 254 260 253 258
302 316 331 348 360 12 348 12 128 138 50 312 315 335 2 41 321 1 4 18 26 333 80 64 33 57 70 20 60 196 95 109 95 95 85 38 90 265 185 237 249 254 260 259 253
293 303 326 337 15 356 348 74 127 42 277 332 321 342 356 3 9 6 16 22 331 357 37 41 7 58 338 343 41 124 77 48 62 77 40 237 140 275 185 222 258 248 245 254 258
260 273 315 348 332 347 358 125 39 94 332 312 337 338 339 337 3 4 13 43 21 16 7 1 9 337 23 49 7 71 59 36 32 11 218 327 110 263 227 252 321 320 215 248 255
269 245 259 311 337 354 105 61 78 228 227 293 340 318 12 346 352 22 15 15 22 15 40 38 350 7 333 31 262 56 126 146 174 175 212 109 219 253 296 266 333 15 47 75 107
252 247 238 287 332 339 180 50 183 200 212 342 342 41 334 329 357 48 30 11 16 8 24 24 332 324 262 316 28 340 55 137 107 9 64 238 292 308 20 26 47 24 10 11 17
249 223 215 269 316 15 74 171 162 199 60 79 111 116 352 311 40 45 16 312 337 8 335 4 49 3 292 317 356 85 190 54 4 107 190 293 266 268 3 20 16 18 7 353 355
241 211 189 250 184 89 128 202 201 199 157 108 147 21 293 349 94 53 352 297 349 321 341 350 103 320 2 18 3 2 26 51 111 121 140 122 274 275 335 353 3 5 16 13 8
214 56 185 174 48 45 119 169 149 149 135 123 110 78 222 312 20 67 67 322 351 340 11 2 6 73 343 326 30 30 355 23 122 231 148 128 281 338 359 25 14 15 22 29 29
204 179 177 175 127 53 308 340 141 134 181 160 125 139 327 332 77 37 304 326 11 19 6 328 5 48 351 353 8 338 25 4 98 86 235 129 248 316 4 38 40 14 5 18 19
172 95 134 135 116 131 136 212 40 203 186 162 133 117 70 360 7 260 347 340 337 7 13 12 47 78 173 220 266 305 333 319 164 123 228 210 304 271 342 345 320 326 306 323 338
185 207 166 193 224 124 110 146 132 172 204 182 30 155 144 106 353 338 305 336 26 7 27 82 85 19 303 281 257 250 281 17 256 217 205 342 312 303 306 321 324 344 330 326 341
176 154 138 108 129 108 20 210 158 165 141 249 165 181 153 149 191 210 352 101 227 351 29 359 207 90 322 343 352 277 272 278 267 229 242 244 267 261 300 355 30 30 29 23 7
196 164 163 167 129 116 195 171 189 151 200 211 172 141 166 205 196 236 241 260 257 19 10 33 92 47 269 338 341 348 229 259 258 259 254 245 278 341 348 38 34 25 23 19 15